Time,TemperatureF,DewpointF,PressureIn,WindDirection,WindDirectionDegrees,WindSpeedMPH,WindSpeedGustMPH,Humidity,HourlyPrecipIn,Conditions,Clouds,dailyrainin,SoftwareType,DateUTC
2013-07-01 00:02:00,60.1,55.0,29.88,WNW,297,0.0,1.0,82,0.00,,,0.00,weatherlink.com 1.10,2013-07-01 05:02:00,
2013-07-01 00:17:00,59.4,54.0,29.88,WNW,297,0.0,0.0,82,0.00,,,0.00,weatherlink.com 1.10,2013-07-01 05:17:00,
2013-07-01 00:33:00,58.7,54.0,29.88,WNW,297,0.0,0.0,85,0.00,,,0.00,weatherlink.com 1.10,2013-07-01 05:33:00,
2013-07-01 00:48:00,58.5,54.0,29.88,SSE,155,0.0,0.0,85,0.00,,,0.00,weatherlink.com 1.10,2013-07-01 05:48:00,
2013-07-01 01:03:00,57.9,54.0,29.88,SSE,155,0.0,0.0,87,0.00,,,0.00,weatherlink.com 1.10,2013-07-01 06:03:00,
2013-07-01 01:18:00,58.2,54.0,29.89,SSE,160,0.0,0.0,85,0.00,,,0.00,weatherlink.com 1.10,2013-07-01 06:18:00,
2013-07-01 01:33:00,57.7,54.0,29.89,SSE,160,0.0,0.0,88,0.00,,,0.00,weatherlink.com 1.10,2013-07-01 06:33:00,
2013-07-01 01:48:00,57.3,54.0,29.89,SSE,160,0.0,0.0,88,0.00,,,0.00,weatherlink.com 1.10,2013-07-01 06:48:00,
2013-07-01 02:03:00,56.5,53.0,29.89,SSE,159,0.0,0.0,89,0.00,,,0.00,weatherlink.com 1.10,2013-07-01 07:03:00,
2013-07-01 02:18:00,56.2,54.0,29.89,SSE,159,0.0,0.0,91,0.00,,,0.00,weatherlink.com 1.10,2013-07-01 07:18:00,
2013-07-01 02:33:00,55.5,53.0,29.89,SSE,159,0.0,0.0,91,0.00,,,0.00,weatherlink.com 1.10,2013-07-01 07:33:00,
2013-07-01 02:48:00,55.1,53.0,29.89,SSE,159,0.0,0.0,92,0.00,,,0.00,weatherlink.com 1.10,2013-07-01 07:48:00,
2013-07-01 03:03:00,55.1,53.0,29.89,SSE,159,0.0,1.0,92,0.00,,,0.00,weatherlink.com 1.10,2013-07-01 08:03:00,
2013-07-01 03:18:00,55.1,53.0,29.90,SSE,159,0.0,0.0,93,0.00,,,0.00,weatherlink.com 1.10,2013-07-01 08:18:00,
2013-07-01 03:33:00,54.6,53.0,29.90,SSE,159,0.0,0.0,93,0.00,,,0.00,weatherlink.com 1.10,2013-07-01 08:33:00,
2013-07-01 03:48:00,53.7,52.0,29.90,SSE,159,0.0,0.0,93,0.00,,,0.00,weatherlink.com 1.10,2013-07-01 08:48:00,
2013-07-01 04:03:00,53.4,52.0,29.90,SSE,160,0.0,0.0,93,0.00,,,0.00,weatherlink.com 1.10,2013-07-01 09:03:00,
2013-07-01 04:18:00,53.4,52.0,29.91,SSE,159,0.0,0.0,94,0.00,,,0.00,weatherlink.com 1.10,2013-07-01 09:18:00,
2013-07-01 04:33:00,53.4,52.0,29.91,SSE,160,0.0,0.0,94,0.00,,,0.00,weatherlink.com 1.10,2013-07-01 09:33:00,
2013-07-01 04:48:00,53.2,52.0,29.91,SSE,160,0.0,0.0,94,0.00,,,0.00,weatherlink.com 1.10,2013-07-01 09:48:00,
2013-07-01 05:03:00,53.3,52.0,29.91,SSE,159,0.0,0.0,94,0.00,,,0.00,weatherlink.com 1.10,2013-07-01 10:03:00,
2013-07-01 05:18:00,53.1,52.0,29.92,SSE,160,0.0,0.0,95,0.00,,,0.00,weatherlink.com 1.10,2013-07-01 10:18:00,
2013-07-01 05:33:00,53.4,52.0,29.92,SSE,160,0.0,0.0,95,0.00,,,0.00,weatherlink.com 1.10,2013-07-01 10:33:00,
2013-07-01 05:48:00,53.5,52.0,29.92,SSE,159,0.0,0.0,95,0.00,,,0.00,weatherlink.com 1.10,2013-07-01 10:48:00,
2013-07-01 06:03:00,52.9,52.0,29.93,SSE,160,0.0,0.0,95,0.00,,,0.00,weatherlink.com 1.10,2013-07-01 11:03:00,
2013-07-01 06:18:00,53.1,52.0,29.93,SSE,160,0.0,0.0,95,0.00,,,0.00,weatherlink.com 1.10,2013-07-01 11:18:00,
2013-07-01 06:33:00,54.5,53.0,29.93,SSE,160,0.0,0.0,95,0.00,,,0.00,weatherlink.com 1.10,2013-07-01 11:33:00,
2013-07-01 06:48:00,56.1,55.0,29.93,SE,146,0.0,0.0,95,0.00,,,0.00,weatherlink.com 1.10,2013-07-01 11:48:00,
2013-07-01 07:03:00,58.0,56.0,29.93,SE,145,0.0,0.0,93,0.00,,,0.00,weatherlink.com 1.10,2013-07-01 12:03:00,
2013-07-01 07:18:00,60.7,58.0,29.94,SE,145,0.0,0.0,90,0.00,,,0.00,weatherlink.com 1.10,2013-07-01 12:18:00,
2013-07-01 07:33:00,61.3,57.0,29.94,SE,145,0.0,1.0,85,0.00,,,0.00,weatherlink.com 1.10,2013-07-01 12:33:00,
2013-07-01 07:48:00,62.9,57.0,29.94,WSW,246,0.0,1.0,82,0.00,,,0.00,weatherlink.com 1.10,2013-07-01 12:48:00,
2013-07-01 08:04:00,65.0,59.0,29.95,WSW,250,0.0,1.0,80,0.00,,,0.00,weatherlink.com 1.10,2013-07-01 13:04:00,
2013-07-01 08:19:00,64.4,58.0,29.95,NW,320,2.0,2.0,79,0.00,,,0.00,weatherlink.com 1.10,2013-07-01 13:19:00,
2013-07-01 08:34:00,65.5,57.0,29.95,NW,309,1.0,3.0,75,0.00,,,0.00,weatherlink.com 1.10,2013-07-01 13:34:00,
2013-07-01 08:49:00,66.8,57.0,29.96,WNW,292,3.0,4.0,72,0.00,,,0.00,weatherlink.com 1.10,2013-07-01 13:49:00,
2013-07-01 09:04:00,68.1,57.0,29.96,WNW,302,4.0,6.0,68,0.00,,,0.00,weatherlink.com 1.10,2013-07-01 14:04:00,
2013-07-01 09:19:00,69.5,57.0,29.96,WNW,298,4.0,6.0,65,0.00,,,0.00,weatherlink.com 1.10,2013-07-01 14:19:00,
2013-07-01 09:34:00,70.7,58.0,29.96,WNW,295,4.0,5.0,64,0.00,,,0.00,weatherlink.com 1.10,2013-07-01 14:34:00,
2013-07-01 09:49:00,72.2,57.0,29.96,NW,314,3.0,6.0,60,0.00,,,0.00,weatherlink.com 1.10,2013-07-01 14:49:00,
2013-07-01 10:04:00,73.1,57.0,29.95,NW,318,5.0,8.0,58,0.00,,,0.00,weatherlink.com 1.10,2013-07-01 15:04:00,
2013-07-01 10:19:00,74.1,59.0,29.95,WNW,297,4.0,9.0,59,0.00,,,0.00,weatherlink.com 1.10,2013-07-01 15:19:00,
2013-07-01 10:34:00,75.3,57.0,29.95,NW,314,6.0,9.0,53,0.00,,,0.00,weatherlink.com 1.10,2013-07-01 15:34:00,
2013-07-01 10:49:00,76.0,56.0,29.95,NW,317,6.0,10.0,51,0.00,,,0.00,weatherlink.com 1.10,2013-07-01 15:49:00,
2013-07-01 11:04:00,76.3,56.0,29.95,NE,48,6.0,9.0,49,0.00,,,0.00,weatherlink.com 1.10,2013-07-01 16:04:00,
2013-07-01 11:19:00,76.7,55.0,29.95,North,5,6.0,12.0,47,0.00,,,0.00,weatherlink.com 1.10,2013-07-01 16:19:00,
2013-07-01 11:34:00,77.3,53.0,29.95,NNE,16,5.0,9.0,43,0.00,,,0.00,weatherlink.com 1.10,2013-07-01 16:34:00,
2013-07-01 11:49:00,77.7,55.0,29.95,North,349,5.0,11.0,45,0.00,,,0.00,weatherlink.com 1.10,2013-07-01 16:49:00,
2013-07-01 12:04:00,77.8,55.0,29.94,North,9,4.0,12.0,45,0.00,,,0.00,weatherlink.com 1.10,2013-07-01 17:04:00,
2013-07-01 12:19:00,77.9,54.0,29.94,North,356,2.0,10.0,44,0.00,,,0.00,weatherlink.com 1.10,2013-07-01 17:19:00,
2013-07-01 12:34:00,78.8,56.0,29.94,NNW,346,7.0,13.0,45,0.00,,,0.00,weatherlink.com 1.10,2013-07-01 17:34:00,
2013-07-01 12:49:00,78.8,55.0,29.93,North,359,4.0,10.0,44,0.00,,,0.00,weatherlink.com 1.10,2013-07-01 17:49:00,
2013-07-01 13:04:00,80.1,54.0,29.93,ENE,69,5.0,10.0,41,0.00,,,0.00,weatherlink.com 1.10,2013-07-01 18:04:00,
2013-07-01 13:19:00,79.7,56.0,29.93,ENE,61,11.0,11.0,45,0.00,,,0.00,weatherlink.com 1.10,2013-07-01 18:19:00,
2013-07-01 13:34:00,79.7,55.0,29.93,NE,40,2.0,9.0,43,0.00,,,0.00,weatherlink.com 1.10,2013-07-01 18:34:00,
2013-07-01 13:49:00,79.8,55.0,29.92,NNE,16,4.0,12.0,43,0.00,,,0.00,weatherlink.com 1.10,2013-07-01 18:49:00,
2013-07-01 14:04:00,78.8,55.0,29.92,NW,325,7.0,11.0,44,0.00,,,0.00,weatherlink.com 1.10,2013-07-01 19:04:00,
2013-07-01 14:19:00,80.2,56.0,29.92,NNW,335,4.0,10.0,43,0.00,,,0.00,weatherlink.com 1.10,2013-07-01 19:19:00,
2013-07-01 14:35:00,80.3,56.0,29.91,NNW,329,9.0,12.0,43,0.00,,,0.00,weatherlink.com 1.10,2013-07-01 19:35:00,
2013-07-01 14:50:00,80.5,58.0,29.91,ENE,72,8.0,11.0,46,0.00,,,0.00,weatherlink.com 1.10,2013-07-01 19:50:00,
2013-07-01 15:05:00,80.8,56.0,29.90,NW,311,8.0,11.0,42,0.00,,,0.00,weatherlink.com 1.10,2013-07-01 20:05:00,
2013-07-01 15:20:00,81.0,57.0,29.90,NNW,344,4.0,9.0,44,0.00,,,0.00,weatherlink.com 1.10,2013-07-01 20:20:00,
2013-07-01 15:35:00,80.8,57.0,29.90,NE,36,7.0,8.0,44,0.00,,,0.00,weatherlink.com 1.10,2013-07-01 20:35:00,
2013-07-01 15:50:00,81.7,54.0,29.89,NNE,30,7.0,11.0,39,0.00,,,0.00,weatherlink.com 1.10,2013-07-01 20:50:00,
2013-07-01 16:05:00,82.4,56.0,29.89,NNW,338,4.0,9.0,41,0.00,,,0.00,weatherlink.com 1.10,2013-07-01 21:05:00,
2013-07-01 16:20:00,81.6,55.0,29.89,ENE,71,5.0,8.0,40,0.00,,,0.00,weatherlink.com 1.10,2013-07-01 21:20:00,
2013-07-01 16:35:00,81.7,54.0,29.89,NNE,33,4.0,7.0,39,0.00,,,0.00,weatherlink.com 1.10,2013-07-01 21:35:00,
2013-07-01 16:50:00,82.2,56.0,29.88,WNW,295,3.0,9.0,41,0.00,,,0.00,weatherlink.com 1.10,2013-07-01 21:50:00,
2013-07-01 17:05:00,82.5,56.0,29.88,NNW,330,3.0,12.0,41,0.00,,,0.00,weatherlink.com 1.10,2013-07-01 22:05:00,
2013-07-01 17:20:00,82.3,56.0,29.88,NW,323,5.0,9.0,41,0.00,,,0.00,weatherlink.com 1.10,2013-07-01 22:20:00,
2013-07-01 17:35:00,81.9,57.0,29.87,NNW,330,3.0,6.0,43,0.00,,,0.00,weatherlink.com 1.10,2013-07-01 22:35:00,
2013-07-01 17:50:00,81.0,56.0,29.87,NNE,26,3.0,5.0,42,0.00,,,0.00,weatherlink.com 1.10,2013-07-01 22:50:00,
2013-07-01 18:06:00,79.7,56.0,29.88,North,360,0.0,6.0,45,0.00,,,0.00,weatherlink.com 1.10,2013-07-01 23:06:00,
2013-07-01 18:20:00,80.8,58.0,29.87,WNW,299,2.0,4.0,46,0.00,,,0.00,weatherlink.com 1.10,2013-07-01 23:20:00,
2013-07-01 18:35:00,81.9,57.0,29.87,NNW,328,2.0,5.0,43,0.00,,,0.00,weatherlink.com 1.10,2013-07-01 23:35:00,
2013-07-01 18:50:00,81.4,57.0,29.86,NNE,12,2.0,8.0,44,0.00,,,0.00,weatherlink.com 1.10,2013-07-01 23:50:00,
2013-07-01 19:05:00,80.6,57.0,29.87,NE,49,2.0,5.0,44,0.00,,,0.00,weatherlink.com 1.10,2013-07-02 00:05:00,
2013-07-01 19:20:00,79.7,56.0,29.87,NNE,27,2.0,5.0,45,0.00,,,0.00,weatherlink.com 1.10,2013-07-02 00:20:00,
2013-07-01 19:35:00,79.0,56.0,29.87,NNE,27,2.0,4.0,46,0.00,,,0.00,weatherlink.com 1.10,2013-07-02 00:35:00,
2013-07-01 19:50:00,79.1,57.0,29.87,North,5,1.0,2.0,47,0.00,,,0.00,weatherlink.com 1.10,2013-07-02 00:50:00,
2013-07-01 20:05:00,79.0,57.0,29.87,NNW,339,1.0,2.0,47,0.00,,,0.00,weatherlink.com 1.10,2013-07-02 01:05:00,
2013-07-01 20:20:00,78.5,57.0,29.87,North,358,1.0,2.0,47,0.00,,,0.00,weatherlink.com 1.10,2013-07-02 01:20:00,
2013-07-01 20:35:00,77.6,56.0,29.87,North,11,1.0,2.0,48,0.00,,,0.00,weatherlink.com 1.10,2013-07-02 01:35:00,
2013-07-01 20:50:00,75.1,57.0,29.87,NNE,20,0.0,0.0,53,0.00,,,0.00,weatherlink.com 1.10,2013-07-02 01:50:00,
2013-07-01 21:05:00,73.9,56.0,29.87,NNW,342,1.0,2.0,54,0.00,,,0.00,weatherlink.com 1.10,2013-07-02 02:05:00,
2013-07-01 21:20:00,72.3,56.0,29.87,NNW,340,0.0,1.0,56,0.00,,,0.00,weatherlink.com 1.10,2013-07-02 02:20:00,
2013-07-01 21:35:00,69.4,58.0,29.87,NNW,341,0.0,0.0,68,0.00,,,0.00,weatherlink.com 1.10,2013-07-02 02:35:00,
2013-07-01 21:50:00,68.2,57.0,29.88,NNW,342,0.0,1.0,68,0.00,,,0.00,weatherlink.com 1.10,2013-07-02 02:50:00,
2013-07-01 22:05:00,66.1,58.0,29.88,NNW,342,0.0,0.0,74,0.00,,,0.00,weatherlink.com 1.10,2013-07-02 03:05:00,
2013-07-01 22:20:00,65.8,57.0,29.88,NNW,344,0.0,1.0,73,0.00,,,0.00,weatherlink.com 1.10,2013-07-02 03:20:00,
2013-07-01 22:35:00,65.0,57.0,29.89,NNW,345,1.0,1.0,76,0.00,,,0.00,weatherlink.com 1.10,2013-07-02 03:35:00,
2013-07-01 22:50:00,64.6,56.0,29.89,NNW,344,0.0,0.0,74,0.00,,,0.00,weatherlink.com 1.10,2013-07-02 03:50:00,
2013-07-01 23:05:00,64.7,56.0,29.89,NNW,344,0.0,0.0,73,0.00,,,0.00,weatherlink.com 1.10,2013-07-02 04:05:00,
2013-07-01 23:20:00,64.2,57.0,29.89,NNW,345,0.0,0.0,76,0.00,,,0.00,weatherlink.com 1.10,2013-07-02 04:20:00,
2013-07-01 23:35:00,63.1,56.0,29.89,NNW,345,0.0,0.0,78,0.00,,,0.00,weatherlink.com 1.10,2013-07-02 04:35:00,
2013-07-01 23:50:00,63.4,56.0,29.89,NNW,345,0.0,0.0,76,0.00,,,0.00,weatherlink.com 1.10,2013-07-02 04:50:00,